Volver al catálogo

AMC-21

ActivoComunicacionesGEO
NORAD 33275·PAYLOAD·🇱🇺 Luxembourg

Lanzado Aug 14, 2008 desde Guiana Space Centre

Loading…

TLE

ActualizadoSource: Space-Track

Época: Sep 14, 2026, 14:18 UTC

1 33275U 08038B   26257.59607443 -.00000122  00000-0  00000-0 0  9995
2 33275   3.1778  78.9078 0009870  21.9411 213.1170  0.99011873 66352

Sigue AMC-21 en tiempo real con AllMySat

Download on the App Store